Probability
0 0 0 0 0 0 0 0 0 0 0 0 0 0 0 0 0 0 0 0 0 0 0 3 6 6 3 3 6 10 10 6 3 3 3 3 3 0 0 0 0 0 0 0
0 0 0 0 0 0 0 0 0 0 0 0 0 0 0 0 0 0 0 0 0 0 0 3 3 6 3 3 3 10 6 6 3 3 3 3 3 0 0 0 0 0 0 0
0 0 0 0 0 0 0 0 0 0 0 0 0 0 0 0 0 0 0 0 0 0 0 0 3 3 3 3 3 0 3 3 3 3 3 0 0 0 0 0 0 0 0 0
0 0 0 0 0 0 0 0 0 0 0 0 0 0 0 0 0 0 0 0 0 0 0 0 0 3 3 3 3 0 0 3 3 3 0 0 0 0 0 0 0 0 0 0
0 0 0 0 0 0 0 0 0 0 0 0 0 0 0 0 0 0 0 0 0 0 0 0 0 3 3 3 0 0 0 0 3 0 3 0 0 0 0 0 0 0 0 0
0 0 0 0 0 0 0 0 0 0 0 0 0 0 0 0 0 0 0 0 0 0 0 0 0 0 0 0 0 0 0 0 0 0 0 0 0 0 0 0 0 0 0 0
0 0 0 0 0 0 0 0 0 0 0 0 0 0 0 0 0 0 0 0 0 0 0 0 0 0 0 0 0 0 0 0 0 0 0 0 0 0 0 0 0 0 0 0
0 0 0 0 0 0 0 0 0 0 0 0 0 0 0 0 0 0 0 0 0 0 0 0 0 0 0 0 0 0 0 0 0 0 0 0 0 0 0 0 0 0 0 0
0 0 0 0 0 0 0 0 0 0 0 0 0 0 0 0 0 0 0 0 0 0 0 0 0 0 0 0 0 0 0 0 0 0 0 0 0 0 0 0 0 0 0 0
0 0 0 0 0 0 0 0 0 0 0 0 0 0 0 0 0 0 0 0 0 0 0 0 0 0 0 0 0 0 0 0 0 0 0 0 0 0 0 0 0 0 0 0
0 0 0 0 0 0 0 0 0 0 0 0 0 0 0 0 0 0 0 0 0 0 0 0 0 0 0 0 0 0 0 0 0 0 0 0 0 0 0 0 0 0 0 0
0 0 0 0 0 0 0 0 0 0 0 0 0 0 0 0 0 0 0 0 0 0 0 0 0 0 0 0 0 0 0 0 0 0 0 0 0 0 0 0 0 0 0 0
0 0 0 0 0 0 0 0 0 0 0 0 0 0 0 0 0 0 0 0 0 0 0 0 0 0 0 0 0 0 0 0 0 0 0 0 0 0 0 0 0 0 0 0
0 0 0 0 0 0 0 0 0 0 0 0 0 0 0 0 0 0 0 0 0 0 0 0 0 0 0 0 0 0 0 0 0 0 0 0 0 0 0 0 0 0 0 0
0 0 0 0 0 0 0 0 0 0 0 0 0 0 0 0 0 0 0 0 0 0 0 0 0 0 0 0 0 0 0 0 0 0 0 0 0 0 0 0 0 0 0 0
0 0 0 0 0 0 0 0 0 0 0 0 0 0 0 0 0 0 0 0 0 0 0 0 0 0 0 0 0 0 0 0 0 0 0 0 0 0 0 0 0 0 0 0
0 0 0 0 0 0 0 0 0 0 0 0 0 0 0 0 0 0 0 0 0 0 0 0 0 0 0 0 0 0 0 0 0 0 0 0 0 0 0 0 0 0 0 0
0 0 0 0 0 0 0 0 0 0 0 0 0 0 0 0 0 0 0 0 0 0 0 0 0 0 0 0 0 0 0 0 0 0 0 0 0 0 0 0 0 0 0 0
0 0 0 0 0 0 0 0 0 0 0 0 0 0 0 0 0 0 0 0 0 0 0 0 0 0 0 0 0 0 0 0 0 0 0 0 0 0 0 0 0 0 0 0
0 0 0 0 0 0 0 0 0 0 0 0 0 0 0 0 0 0 0 0 0 0 0 0 0 0 0 0 0 0 0 0 0 0 0 0 0 0 0 0 0 0 0 0
0 0 0 0 0 0 0 0 0 0 0 0 0 0 0 0 0 0 0 0 0 0 0 0 0 0 0 0 0 0 0 0 0 0 0 0 0 0 0 0 0 0 0 0
0 0 0 0 0 0 0 0 0 0 0 0 0 0 0 0 0 0 0 0 0 0 0 0 0 0 0 0 0 0 0 0 0 0 0 0 0 0 0 0 0 0 0 0
0 0 0 0 0 0 0 0 0 0 0 0 0 0 0 0 0 0 0 0 0 0 0 0 0 0 0 0 0 0 0 0 0 0 0 0 0 0 0 0 0 0 0 0
0 0 0 0 0 0 0 0 0 0 0 0 0 0 0 0 0 0 0 0 0 0 0 0 0 0 0 0 0 0 0 0 0 0 0 0 0 0 0 0 0 0 0 0
0 0 0 0 0 0 0 0 0 0 0 0 0 0 0 0 0 0 0 0 0 0 0 0 0 0 0 0 0 0 0 0 0 0 0 0 0 0 0 0 0 0 0 0
0 0 0 0 0 0 0 0 0 0 0 0 0 0 0 0 0 0 0 0 0 0 0 0 0 0 0 0 0 0 0 0 0 0 0 0 0 0 0 0 0 0 0 0
Height
5626 5630 5632 5637 5643 5649 5653 5657 5662 5667 5671 5675 5679 5686 5692 5696 5702 5708 5715 5721 5727 5734 5740 5746 5752 5757 5762 5767 5772 5776 5781 5784 5788 5790 5793 5794 5796 5798 5800 5801 5802 5803 5804 5804
5626 5628 5632 5636 5639 5643 5647 5651 5656 5661 5665 5669 5673 5678 5683 5688 5694 5701 5707 5712 5718 5724 5731 5738 5743 5749 5754 5759 5763 5768 5772 5776 5779 5782 5784 5786 5788 5790 5791 5792 5793 5794 5794 5795
5624 5628 5631 5634 5637 5640 5643 5647 5652 5656 5660 5663 5666 5670 5675 5680 5686 5692 5698 5703 5709 5715 5722 5728 5734 5739 5744 5749 5754 5758 5763 5766 5769 5772 5775 5777 5779 5780 5782 5783 5783 5784 5784 5785
5623 5626 5629 5631 5634 5637 5641 5645 5648 5652 5654 5657 5661 5663 5669 5673 5678 5684 5689 5694 5699 5706 5712 5718 5724 5729 5735 5740 5745 5749 5753 5757 5760 5763 5765 5767 5769 5771 5772 5773 5774 5774 5775 5776
5622 5624 5627 5629 5632 5635 5638 5642 5645 5648 5650 5653 5656 5658 5663 5666 5671 5676 5681 5686 5691 5697 5703 5709 5715 5720 5725 5730 5735 5740 5744 5747 5750 5753 5755 5757 5759 5760 5762 5763 5764 5765 5766 5766
5621 5623 5625 5628 5630 5632 5635 5638 5641 5643 5645 5648 5651 5653 5657 5660 5665 5670 5675 5679 5684 5690 5695 5700 5705 5710 5715 5721 5725 5730 5734 5737 5740 5742 5745 5747 5749 5750 5752 5753 5755 5756 5756 5756
5620 5622 5623 5625 5627 5630 5632 5634 5636 5637 5639 5642 5646 5648 5652 5655 5659 5663 5668 5672 5676 5681 5685 5690 5696 5700 5705 5711 5715 5720 5724 5727 5729 5731 5734 5737 5739 5740 5742 5743 5745 5746 5747 5747
5618 5620 5622 5623 5625 5626 5628 5630 5632 5633 5635 5638 5641 5643 5648 5650 5653 5657 5660 5664 5668 5672 5676 5681 5686 5691 5695 5700 5705 5709 5713 5717 5719 5721 5724 5727 5729 5730 5732 5733 5735 5736 5737 5737
5616 5619 5620 5622 5623 5625 5625 5627 5629 5631 5632 5633 5635 5638 5642 5644 5647 5650 5653 5656 5660 5664 5668 5672 5677 5682 5686 5690 5695 5699 5703 5706 5709 5711 5713 5717 5719 5720 5722 5723 5724 5725 5727 5727
5615 5616 5618 5619 5621 5622 5623 5624 5625 5626 5627 5628 5631 5633 5637 5638 5641 5643 5646 5649 5653 5656 5660 5664 5668 5673 5677 5681 5685 5689 5692 5696 5698 5701 5703 5706 5708 5710 5712 5713 5714 5715 5716 5717
5613 5614 5616 5616 5617 5618 5619 5621 5621 5622 5624 5625 5626 5631 5631 5633 5634 5636 5639 5642 5646 5649 5653 5656 5660 5663 5667 5670 5674 5678 5682 5685 5688 5690 5692 5695 5697 5699 5701 5703 5704 5705 5705 5706
5610 5611 5612 5614 5614 5614 5615 5617 5618 5619 5621 5621 5621 5627 5626 5628 5629 5630 5633 5636 5639 5642 5645 5648 5651 5654 5657 5661 5665 5668 5671 5674 5677 5680 5682 5685 5687 5689 5691 5692 5693 5694 5695 5696
5607 5608 5609 5610 5612 5612 5612 5613 5614 5615 5616 5616 5617 5622 5621 5622 5623 5625 5627 5629 5631 5634 5637 5640 5642 5645 5649 5652 5656 5658 5662 5664 5667 5669 5672 5675 5677 5679 5680 5682 5683 5684 5685 5685
5604 5605 5606 5607 5606 5606 5608 5609 5610 5610 5611 5612 5613 5615 5617 5616 5618 5620 5621 5623 5625 5627 5629 5632 5634 5638 5641 5643 5646 5649 5652 5654 5656 5659 5662 5664 5666 5668 5669 5671 5672 5673 5674 5675
5601 5602 5602 5603 5602 5603 5604 5605 5605 5605 5606 5607 5609 5610 5611 5611 5612 5614 5614 5616 5617 5619 5622 5624 5626 5629 5631 5634 5636 5639 5641 5643 5646 5649 5651 5653 5655 5657 5658 5660 5661 5662 5663 5664
5597 5598 5598 5599 5598 5598 5599 5600 5600 5601 5601 5602 5603 5605 5605 5605 5606 5607 5608 5609 5610 5612 5613 5615 5618 5620 5622 5625 5627 5629 5631 5633 5635 5638 5640 5642 5644 5646 5647 5648 5650 5651 5652 5653
5594 5593 5594 5594 5594 5594 5595 5596 5596 5596 5597 5597 5598 5600 5599 5600 5600 5601 5601 5602 5603 5604 5605 5607 5609 5611 5613 5615 5617 5619 5621 5623 5625 5627 5629 5631 5633 5634 5635 5637 5638 5639 5640 5641
5590 5589 5588 5589 5589 5589 5593 5591 5590 5591 5592 5591 5592 5593 5592 5593 5594 5594 5594 5595 5596 5596 5597 5598 5600 5601 5603 5605 5607 5609 5610 5612 5614 5616 5618 5619 5621 5623 5625 5626 5627 5628 5629 5630
5585 5584 5583 5583 5582 5583 5585 5585 5584 5584 5586 5585 5585 5585 5586 5586 5587 5587 5587 5587 5588 5588 5589 5591 5591 5592 5593 5595 5596 5598 5599 5601 5603 5605 5607 5609 5610 5612 5613 5614 5616 5617 5618 5619
5581 5580 5580 5578 5577 5577 5580 5579 5577 5578 5579 5579 5578 5578 5579 5579 5580 5581 5580 5580 5580 5581 5581 5582 5583 5583 5584 5585 5586 5588 5589 5590 5592 5594 5596 5597 5599 5600 5602 5603 5604 5605 5606 5607
5576 5575 5574 5573 5571 5572 5573 5572 5571 5572 5573 5571 5571 5571 5571 5571 5572 5573 5572 5572 5572 5572 5573 5573 5574 5574 5575 5575 5576 5578 5579 5580 5582 5584 5585 5586 5588 5589 5590 5592 5593 5594 5595 5596
5571 5570 5569 5568 5567 5570 5567 5566 5565 5565 5564 5563 5563 5563 5563 5564 5564 5564 5564 5564 5564 5564 5565 5564 5565 5565 5565 5566 5567 5568 5569 5570 5572 5574 5575 5576 5577 5578 5579 5580 5581 5582 5583 5584
5565 5565 5563 5563 5564 5562 5560 5559 5558 5557 5557 5556 5556 5556 5556 5556 5556 5556 5556 5556 5556 5556 5556 5556 5556 5556 5557 5557 5558 5559 5560 5561 5562 5564 5565 5566 5567 5568 5569 5569 5570 5571 5572 5572
5559 5558 5557 5557 5557 5555 5553 5552 5551 5550 5549 5549 5548 5548 5548 5548 5548 5548 5548 5548 5547 5547 5547 5547 5547 5548 5548 5549 5550 5550 5551 5552 5553 5554 5555 5556 5557 5558 5558 5559 5559 5560 5561 5561
5552 5550 5549 5549 5549 5547 5546 5545 5544 5543 5542 5541 5540 5540 5539 5539 5540 5540 5540 5539 5539 5539 5539 5539 5539 5539 5540 5540 5541 5542 5542 5543 5544 5545 5546 5546 5547 5547 5548 5548 5549 5549 5550 5550
5545 5543 5542 5542 5541 5539 5539 5537 5536 5535 5534 5533 5533 5532 5532 5531 5531 5531 5531 5531 5530 5530 5530 5530 5530 5530 5531 5532 5533 5533 5534 5534 5535 5536 5536 5537 5537 5537 5538 5538 5539 5539 5539 5540
Wind_Speed
19 22 26 29 31 31 33 35 35 34 36 38 41 42 42 44 47 47 47 47 48 48 47 47 46 46 45 44 44 43 41 41 40 39 39 39 38 38 38 39 38 39 39 39
17 19 21 23 25 27 30 32 33 33 33 34 36 39 41 43 44 45 46 48 48 47 47 47 47 46 45 45 44 44 43 42 42 41 40 40 39 39 39 40 41 41 41 41
14 15 17 20 21 24 27 28 30 31 31 33 34 35 38 41 44 44 44 46 47 47 47 48 48 47 47 46 45 44 44 43 43 42 42 42 42 41 41 41 41 41 42 42
13 15 16 19 20 22 24 25 27 28 29 31 33 34 36 38 41 42 42 43 45 46 47 48 49 48 47 46 46 45 45 45 44 44 44 44 43 42 42 42 42 42 42 42
13 16 17 18 19 21 22 23 24 25 26 27 28 31 34 37 39 41 42 43 44 45 46 46 47 47 47 46 47 46 46 46 46 46 46 45 44 44 43 42 41 41 41 42
11 14 16 17 18 20 20 21 22 23 24 26 24 27 29 32 36 39 40 41 42 43 45 46 46 47 47 47 47 47 46 46 47 47 47 46 46 46 45 43 43 42 42 42
10 13 15 16 17 18 20 20 20 21 23 25 25 27 26 27 30 34 37 39 40 41 45 46 47 47 47 48 48 48 48 47 47 47 47 47 47 46 45 45 44 44 44 43
11 12 14 15 16 16 18 20 22 24 25 24 25 27 26 27 29 32 34 37 38 40 42 44 46 47 47 47 48 48 48 48 48 47 47 46 46 46 46 46 45 44 44 43
11 12 13 14 16 17 18 19 20 23 24 26 27 27 26 27 30 33 34 36 37 37 39 42 44 44 46 47 48 47 47 47 48 48 47 46 46 46 46 46 45 45 45 45
10 11 12 13 15 17 19 20 21 22 23 23 24 26 27 26 29 32 34 35 36 36 38 40 42 43 44 45 46 46 47 47 46 47 48 47 46 46 46 45 44 45 45 45
10 12 13 14 16 17 18 19 22 23 24 24 26 25 26 27 28 30 32 33 34 35 36 38 40 42 43 43 45 46 46 47 46 46 46 47 47 46 46 45 45 46 46 45
11 12 13 15 16 17 18 19 21 23 23 24 25 25 26 28 28 29 30 31 33 35 37 38 40 41 42 42 44 45 45 46 46 46 46 45 45 45 44 44 45 45 45 44
12 13 14 15 15 17 18 19 20 21 22 23 24 24 24 26 28 29 29 29 31 33 36 37 38 40 40 41 42 42 43 44 45 44 44 44 45 44 44 44 45 45 45 44
15 15 15 16 17 17 18 18 19 21 21 22 23 24 23 24 27 29 28 29 30 32 34 35 37 38 39 40 41 42 43 44 44 44 44 44 44 43 43 44 44 44 44 44
16 17 17 18 18 18 19 19 20 20 21 22 22 24 24 26 27 28 28 29 30 32 34 35 36 37 38 39 39 40 42 43 44 45 45 44 45 45 45 45 44 45 44 43
16 17 18 18 19 19 20 20 21 21 22 23 23 23 25 26 28 28 29 30 31 32 34 35 36 36 37 37 38 39 40 41 43 43 44 44 45 45 45 45 44 43 43 43
16 17 18 19 20 21 21 21 22 22 22 23 24 24 26 27 28 28 29 30 30 29 31 34 35 36 37 38 39 39 40 41 42 43 44 44 44 44 44 45 44 43 43 43
17 17 18 19 21 21 21 22 24 24 24 24 25 26 27 27 27 27 28 28 29 29 30 31 33 35 37 38 39 39 40 42 42 43 43 43 44 44 44 44 44 43 43 44
18 19 20 20 22 22 22 23 25 26 26 26 26 26 27 27 27 28 28 29 29 30 30 31 32 33 35 37 37 39 41 42 43 42 42 42 43 44 44 43 43 43 43 43
19 20 21 22 23 23 22 23 25 27 27 27 27 27 27 29 29 28 28 29 30 31 30 31 32 33 34 35 36 37 38 39 40 40 40 41 42 43 43 42 43 43 43 42
21 22 23 23 24 22 22 24 25 27 27 28 28 28 28 29 29 29 29 29 30 30 30 31 31 32 33 33 34 34 35 37 38 38 39 39 40 41 41 41 41 42 42 42
22 23 24 24 24 23 22 24 25 26 27 27 27 28 29 29 29 28 28 29 30 30 30 30 31 31 32 32 32 32 34 35 35 36 37 37 38 38 39 40 40 41 41 42
23 24 25 25 25 25 24 25 26 27 27 27 26 26 27 28 28 28 28 29 30 30 31 31 31 31 31 33 33 33 34 34 34 34 35 35 36 37 38 39 39 39 40 40
25 26 26 26 25 26 27 26 27 28 28 28 28 28 28 28 28 29 29 29 29 30 30 31 31 31 31 32 32 32 33 33 33 33 34 34 35 36 37 38 39 39 39 40
26 27 27 27 27 27 28 29 29 29 29 29 29 28 28 28 28 28 29 29 30 30 30 30 30 31 30 30 31 31 31 31 32 32 33 34 34 34 35 36 37 38 38 39
26 27 27 26 27 27 27 28 29 28 27 27 27 27 28 28 28 28 29 30 30 31 31 31 30 30 30 30 30 31 31 32 32 32 33 33 34 34 35 35 36 36 36 37
Wind_Direction
228 230 231 228 230 231 232 233 234 235 236 239 238 237 237 234 232 231 231 231 231 231 232 231 232 232 234 236 237 238 240 242 244 247 249 251 253 254 256 257 260 262 264 265
230 228 229 229 229 229 230 232 234 234 236 237 238 240 238 235 233 232 231 232 232 232 232 231 232 233 234 237 238 239 241 243 246 248 251 252 254 256 256 259 261 262 264 265
233 227 224 224 227 230 230 234 234 234 235 236 238 238 237 234 234 233 233 233 233 233 232 232 232 234 235 237 238 240 242 244 246 248 251 252 255 257 259 260 262 263 263 265
233 226 225 227 230 229 231 234 234 235 237 238 239 241 237 235 233 233 232 233 233 233 233 232 233 235 236 237 239 240 243 245 247 249 251 254 256 259 261 261 263 264 265 266
234 226 227 228 230 232 234 233 235 237 238 240 240 239 238 235 233 233 233 234 234 233 233 234 235 236 237 238 240 242 244 246 248 250 252 254 257 259 260 261 262 263 265 267
238 230 229 231 232 236 235 232 234 236 238 239 238 239 239 234 235 235 236 237 237 235 234 235 236 237 238 239 240 242 244 246 248 249 251 254 257 258 259 261 262 263 266 268
241 238 235 235 236 238 235 231 233 235 237 241 240 241 239 237 238 238 238 238 238 238 236 236 237 238 239 240 242 243 244 246 248 249 252 255 256 257 258 261 263 264 266 267
243 240 241 240 240 238 235 234 237 240 240 244 243 242 242 243 242 240 239 239 239 239 238 237 238 239 241 242 242 242 244 246 249 251 252 255 256 257 259 262 263 264 265 267
244 244 246 244 243 244 240 237 238 243 247 249 249 246 246 246 244 242 240 240 240 239 240 239 240 240 241 242 243 244 245 247 250 252 253 254 255 257 260 261 263 265 265 266
249 245 245 246 247 248 246 243 240 241 245 251 255 254 252 250 248 246 245 244 241 240 241 241 240 241 243 244 245 245 246 248 251 253 253 253 254 257 259 261 263 264 265 267
257 254 252 251 253 253 249 246 244 246 249 257 261 257 254 253 253 251 249 246 242 242 241 240 240 241 243 244 246 247 248 248 251 251 252 254 256 257 260 262 263 264 266 268
257 260 256 255 261 259 253 249 248 248 253 259 264 261 256 255 256 254 250 247 245 244 243 244 244 243 244 245 247 248 249 250 251 252 253 255 256 259 261 262 264 265 267 269
262 263 261 257 259 259 256 252 251 253 256 258 261 261 260 258 257 254 252 251 249 246 246 247 248 246 246 247 247 248 250 251 251 253 253 255 258 260 261 263 265 266 267 269
267 266 266 263 264 265 262 256 254 256 258 260 261 263 263 260 258 258 257 255 253 250 248 249 249 248 247 249 250 250 251 252 252 253 254 255 257 259 262 263 264 266 267 269
271 270 269 267 267 267 263 260 256 258 259 261 262 264 264 264 262 260 259 258 257 253 252 251 250 250 250 250 251 252 252 253 253 254 254 256 257 259 262 264 265 267 268 269
272 274 273 270 267 267 264 263 261 260 262 263 264 265 264 265 265 263 262 261 260 258 255 253 252 252 252 251 252 253 254 253 254 254 255 257 259 260 262 263 265 266 267 268
277 275 276 275 271 270 264 263 264 263 263 266 265 266 266 267 267 266 264 263 263 259 257 255 254 254 254 254 255 256 257 256 256 257 258 258 259 261 263 264 265 265 266 268
284 279 278 279 275 274 271 266 266 266 264 267 267 266 267 268 266 265 264 264 263 260 259 257 256 256 255 256 255 255 257 257 258 259 260 260 260 262 263 264 265 266 267 268
285 283 282 282 279 277 276 272 268 267 265 266 267 266 266 267 266 266 265 264 262 261 261 260 260 259 258 257 256 256 256 256 257 258 259 261 262 262 263 264 265 266 266 267
286 284 283 282 283 282 278 277 273 271 270 268 268 268 268 266 266 267 267 267 265 263 262 262 262 260 259 258 257 256 256 256 256 257 259 260 262 263 264 265 265 266 267 268
283 284 285 284 284 284 282 281 278 276 277 273 270 268 268 268 268 268 267 267 266 264 263 263 262 261 260 259 258 257 257 257 257 257 259 260 262 263 264 265 266 267 267 268
283 284 286 285 284 284 283 281 280 279 278 276 273 270 269 269 269 268 267 268 268 267 266 264 263 262 260 259 258 259 260 259 259 260 261 262 262 263 264 265 266 267 267 268
282 285 286 286 285 283 283 282 280 279 278 276 274 273 270 269 269 268 268 268 269 268 267 266 265 264 262 260 259 260 261 260 260 262 263 264 265 265 265 266 267 268 268 269
282 282 284 284 284 283 282 282 281 280 279 277 276 275 272 271 270 269 268 268 268 268 267 266 264 263 262 260 261 262 263 263 263 263 264 265 266 266 266 267 268 268 268 269
285 282 282 282 282 281 280 281 282 282 280 278 275 274 273 272 270 268 269 268 269 269 268 267 265 263 261 261 261 262 262 264 264 264 265 266 267 267 268 269 269 270 270 270
287 284 283 282 281 280 280 280 281 282 280 278 276 275 273 271 269 269 269 270 269 269 269 268 268 266 263 262 263 262 263 264 265 266 267 268 269 268 269 269 270 269 269 270